Location: Corralito
(14.1667°N, 87.1833°W)
Time: 23:32:36
(UTC+00:00)

CZ-2C R/B - Pass Details

Date: 07 June 2020
Orbit: 668 x 784 km, 98.2° (Epoch: 05 July)

Event Time Altitude Azimuth Distance (km) Brightness Sun altitude
Rises 09:12:18 0° 22° (NNE) 3,257 6.6 -27.8°
Reaches altitude 10° 09:14:45 10° 29° (NNE) 2,322 5.8 -27.3°
Maximum altitude 09:19:36 43° 100° (E) 1,062 3.4 -26.3°
Enters shadow 09:21:47 28° 153° (SSE) 1,401 3.7 -25.9°
